User: anonymous   Login
Location: Unspecified
(0.0000°N, 0.0000°E)
Time: 19:35:18
(UTC+02:00)
Language:

ARIANE 5 R/B - Orbit

View from above orbital plane
View from above orbital plane
View from above satellite
View from above satellite

Ground track
Ground track

The orbit data is extracted from the following two-line orbital elements,

1 27510U 02040C   15140.47324226 -.00000056  00000-0  66401-3 0  9994
2 27510 004.7855 141.1927 7173358 116.8402 007.6484 02.27185221105653
Epoch (UTC): 20 May 2015 11:21:28
Eccentricity: 0.7173358
inclination: 4.7855°
perigee height: 531 km
apogee height: 35598 km
right ascension of ascending node: 141.1927°
argument of perigee: 116.8402°
revolutions per day: 2.27185221
mean anomaly at epoch: 7.6484°
orbit number at epoch: 10565

The dashed part of the orbit path shows where the satellite is in the earth's shadow,  

DLR